This demonstration page uses our WeatherBlox Daily Observations layout. Learn more.

Left ArrowRight Arrow

Hourly Observations for June 30, 2020

Temp ( °F °C ) Dew Point ( °F °C ) Humidity (%) Winds ( mph kmh ) Pressure ( in mb ) Visibility ( mi km ) Precip ( " mm )
12:56 am 00:56 Cloudy 80 26.6 74 23.6 84 84 SE 12 19 29.68 1005 10 16 0.00 0.00
1:56 am 01:56 Clear 78 25.7 74 23.3 87 87 ESE 14 22 29.68 1005 10 16 0.00 0.00
2:56 am 02:56 Clear 77 25.2 74 23.2 89 89 SE 12 19 29.68 1005 10 16 0.00 0.00
3:56 am 03:56 Cloudy 78 25.6 74 23.2 87 87 SE 12 19 29.68 1005 10 16 0.00 0.00
4:56 am 04:56 Clear 77 24.8 73 23 90 90 ESE 10 17 29.68 1005 10 16 0.00 0.00
5:56 am 05:56 Sunny 76 24.7 74 23.1 91 91 ESE 9 15 29.69 1006 10 16 0.00 0.00
6:56 am 06:56 Sunny 77 25.1 74 23.1 89 89 ESE 9 15 29.69 1006 10 16 0.00 0.00
7:56 am 07:56 Mostly Sunny 79 26.3 74 23.3 84 84 SE 12 19 29.68 1005 10 16 0.00 0.00
8:11 am 08:11 Mostly Cloudy 81 27 73 23 79 79 SE 13 20 29.68 1005 10 16 0.00 0.00
8:56 am 08:56 Mostly Cloudy 81 27.4 74 23.6 80 80 SE 12 19 29.68 1005 10 16 0.00 0.00
9:11 am 09:11 Partly Cloudy 82 28 75 24 79 79 SSE 15 24 29.68 1005 10 16 0.00 0.00
9:41 am 09:41 Mostly Cloudy 82 28 75 24 79 79 SE 18 30 29.69 1006 10 16 0.00 0.00
9:56 am 09:56 Cloudy 83 28.3 74 23.6 76 76 SE 20 31 29.69 1006 10 16 0.00 0.00
10:41 am 10:41 Cloudy 82 28 75 24 79 79 SSE 16 26 29.69 1006 10 16 0.00 0.00
10:56 am 10:56 Cloudy 83 28.4 74 23.5 75 75 SE 16 26 29.69 1006 10 16 0.00 0.00
11:56 am 11:56 Cloudy 83 28.6 75 24.1 77 77 SE 15 24 29.70 1006 10 16 0.00 0.00
12:56 pm 12:56 Cloudy 85 29.3 75 23.9 73 73 SE 16 26 29.69 1006 10 16 0.00 0.00
1:56 pm 13:56 Cloudy 85 29.3 75 23.9 73 73 SE 18 30 29.69 1006 10 16 0.00 0.00
2:56 pm 14:56 Mostly Cloudy 88 30.9 76 24.3 68 68 SE 20 31 29.68 1005 10 16 0.00 0.00
3:56 pm 15:56 Mostly Cloudy 89 31.7 75 24 64 64 SSE 22 35 29.67 1005 10 16 0.00 0.00
4:56 pm 16:56 Mostly Cloudy 89 31.5 75 23.8 64 64 SSE 18 30 29.67 1005 10 16 0.00 0.00
5:56 pm 17:56 Mostly Sunny 88 31 74 23.3 64 64 SSE 15 24 29.66 1004 10 16 0.00 0.00
6:56 pm 18:56 Cloudy 87 30.6 75 24 68 68 ESE 12 19 29.68 1005 10 16 0.00 0.00
7:56 pm 19:56 Cloudy 85 29.6 75 24 72 72 ESE 13 20 29.69 1006 10 16 0.00 0.00
8:56 pm 20:56 Cloudy 84 29.1 75 23.7 73 73 E 9 15 29.70 1006 10 16 0.00 0.00
9:56 pm 21:56 Cloudy 84 28.8 75 23.7 74 74 ESE 12 19 29.70 1006 10 16 0.00 0.00
10:56 pm 22:56 Cloudy 80 26.7 74 23.5 83 83 E 9 15 29.73 1007 10 16 0.00 0.00
11:56 pm 23:56 Cloudy 80 26.4 74 23.4 84 84 E 8 13 29.74 1007 10 16 0.00 0.00

Powered by AerisWeather